Kincheloe, MI

7:08 AM EDT on September 30, 2016 (GMT -0400)
Chippewa County International

Weather History for KCIU - March, 2013

Change the Weather History Date:

Wednesday, March 27, 2013

  Actual Average Record
Temperature  
Mean Temperature 32 °F -  
Max Temperature 37 °F 41 °F 53 °F (1981)
Min Temperature 28 °F 20 °F 0 °F (2015)
Degree Days  
Heating Degree Days 32    
Moisture  
Dew Point 27 °F    
Average Humidity 80    
Maximum Humidity 100    
Minimum Humidity 65    
Precipitation  
Precipitation 0.00 in - - ()
Sea Level Pressure  
Sea Level Pressure 30.10 in    
Wind  
Wind Speed 12 mph (NW)    
Max Wind Speed 21 mph    
Max Gust Speed 25 mph    
Visibility 10 miles    
Events      
Averages and records for this station are not official NWS values.
T = Trace of Precipitation, MM = Missing Value Source: NWS Daily Summary

Daily Weather History Graph

Daily Weather History Graph

Search for Another Location

Airport or City:

Trip Planner

Search our weather history database for the weather conditions in past years. The results will help you decide how hot, cold, wet, or windy it might be!

Date:

Astronomy

Mar. 27, 2013 Rise Set
Actual Time 7:26 AM EDT 8:00 PM EDT
Civil Twilight 6:56 AM EDT 8:30 PM EDT
Nautical Twilight 6:20 AM EDT 9:06 PM EDT
Astronomical Twilight 5:43 AM EDT 9:43 PM EDT
Moon 8:48 PM EDT (3/27) 7:14 AM EDT (3/27)
Length of Visible Light 13h 33m
Length of Day
12h 33m
Full, 100% of the Moon is Illuminated
Mar 27
Full
Apr 3
Last Quarter
Apr 10
New
Apr 18
First Quarter
Apr 25
Full

Hourly Weather History & Observations

Time (EDT) Temp. Windchill Dew Point Humidity Pressure Visibility Wind Dir Wind Speed Gust Speed Precip Events Conditions
12:15 AM 33.8 °F 25.3 °F 30.2 °F 87% 30.05 in 10.0 mi WNW 11.5 mph - N/A   Overcast
12:35 AM 33.8 °F 25.3 °F 30.2 °F 87% 30.05 in 10.0 mi NW 11.5 mph - N/A   Overcast
12:55 AM 33.8 °F 25.8 °F 30.2 °F 87% 30.06 in 10.0 mi WNW 10.4 mph - N/A   Overcast
1:15 AM 33.8 °F 26.4 °F 30.2 °F 87% 30.05 in 10.0 mi WNW 9.2 mph - N/A   Overcast
1:35 AM 33.8 °F 25.8 °F 30.2 °F 87% 30.05 in 10.0 mi NW 10.4 mph - N/A   Overcast
1:55 AM 32.0 °F 24.2 °F 30.2 °F 93% 30.05 in 10.0 mi WNW 9.2 mph - N/A   Overcast
2:15 AM 32.0 °F 24.2 °F 30.2 °F 93% 30.05 in 10.0 mi WNW 9.2 mph - N/A   Overcast
2:35 AM 30.2 °F 21.9 °F 30.2 °F 100% 30.05 in 10.0 mi West 9.2 mph - N/A   Mostly Cloudy
2:55 AM 30.2 °F 22.6 °F 28.4 °F 93% 30.05 in 10.0 mi West 8.1 mph - N/A   Partly Cloudy
3:15 AM 30.2 °F 23.4 °F 28.4 °F 93% 30.05 in 10.0 mi West 6.9 mph - N/A   Clear
3:35 AM 28.4 °F 22.2 °F 28.4 °F 100% 30.05 in 10.0 mi West 5.8 mph - N/A   Clear
3:55 AM 28.4 °F 20.4 °F 26.6 °F 93% 30.05 in 10.0 mi West 8.1 mph - N/A   Clear
4:15 AM 28.4 °F 19.1 °F 26.6 °F 93% 30.05 in 10.0 mi West 10.4 mph - N/A   Clear
4:35 AM 28.4 °F 19.7 °F 26.6 °F 93% 30.05 in 10.0 mi WNW 9.2 mph - N/A   Clear
4:55 AM 28.4 °F 19.1 °F 28.4 °F 100% 30.05 in 10.0 mi WNW 10.4 mph - N/A   Clear
5:15 AM 28.4 °F 19.7 °F 28.4 °F 100% 30.05 in 10.0 mi WNW 9.2 mph - N/A   Clear
5:35 AM 28.4 °F 21.2 °F 26.6 °F 93% 30.06 in 10.0 mi WNW 6.9 mph - N/A   Clear
5:55 AM 28.4 °F 19.1 °F 26.6 °F 93% 30.06 in 10.0 mi WNW 10.4 mph - N/A   Clear
6:15 AM 28.4 °F 19.7 °F 26.6 °F 93% 30.07 in 10.0 mi NW 9.2 mph - N/A   Clear
6:35 AM 28.4 °F 21.2 °F 26.6 °F 93% 30.07 in 10.0 mi WNW 6.9 mph - N/A   Scattered Clouds
6:55 AM 28.4 °F 20.4 °F 26.6 °F 93% 30.07 in 10.0 mi NW 8.1 mph - N/A   Overcast
7:15 AM 28.4 °F 20.4 °F 26.6 °F 93% 30.07 in 10.0 mi NW 8.1 mph - N/A   Overcast
7:35 AM 28.4 °F 20.4 °F 26.6 °F 93% 30.07 in 10.0 mi WNW 8.1 mph - N/A   Overcast
7:55 AM 28.4 °F 20.4 °F 26.6 °F 93% 30.08 in 10.0 mi WNW 8.1 mph - N/A   Overcast
8:15 AM 30.2 °F 21.9 °F 26.6 °F 86% 30.08 in 10.0 mi NW 9.2 mph - N/A   Overcast
8:35 AM 30.2 °F 21.3 °F 26.6 °F 86% 30.09 in 10.0 mi NW 10.4 mph - N/A   Overcast
8:55 AM 30.2 °F 19.8 °F 26.6 °F 86% 30.09 in 10.0 mi NNW 13.8 mph - N/A   Scattered Clouds
9:15 AM 30.2 °F 20.2 °F 26.6 °F 86% 30.10 in 10.0 mi NW 12.7 mph 23.0 mph N/A   Clear
9:35 AM 32.0 °F 20.8 °F 26.6 °F 80% 30.09 in 10.0 mi NW 17.3 mph 23.0 mph N/A   Clear
9:55 AM 32.0 °F 23.0 °F 26.6 °F 80% 30.10 in 10.0 mi NW 11.5 mph 20.7 mph N/A   Clear
10:15 AM 32.0 °F 21.2 °F 24.8 °F 75% 30.09 in 10.0 mi NW 16.1 mph 20.7 mph N/A   Clear
10:35 AM 33.8 °F 22.5 °F 24.8 °F 70% 30.09 in 10.0 mi NW 19.6 mph 25.3 mph N/A   Clear
10:55 AM 35.6 °F 27.1 °F 24.8 °F 65% 30.09 in 10.0 mi NW 12.7 mph 20.7 mph N/A   Clear
11:15 AM 33.8 °F 23.9 °F 26.6 °F 75% 30.10 in 10.0 mi NW 15.0 mph 23.0 mph N/A   Clear
11:35 AM 33.8 °F 23.9 °F 26.6 °F 75% 30.10 in 10.0 mi NNW 15.0 mph 19.6 mph N/A   Clear
11:55 AM 33.8 °F 24.8 °F 26.6 °F 75% 30.11 in 10.0 mi NNW 12.7 mph 21.9 mph N/A   Mostly Cloudy
12:15 PM 33.8 °F 23.5 °F 26.6 °F 75% 30.11 in 10.0 mi NW 16.1 mph 21.9 mph N/A   Mostly Cloudy
12:35 PM 35.6 °F 25.9 °F 26.6 °F 70% 30.11 in 10.0 mi NW 16.1 mph 19.6 mph N/A   Mostly Cloudy
12:55 PM 35.6 °F 27.1 °F 26.6 °F 70% 30.11 in 10.0 mi NW 12.7 mph 20.7 mph N/A   Partly Cloudy
1:15 PM 35.6 °F 26.6 °F 26.6 °F 70% 30.11 in 10.0 mi NW 13.8 mph 20.7 mph N/A   Clear
1:35 PM 35.6 °F 25.5 °F 26.6 °F 70% 30.10 in 10.0 mi NW 17.3 mph - N/A   Clear
1:55 PM 35.6 °F 25.9 °F 26.6 °F 70% 30.10 in 10.0 mi NNW 16.1 mph - N/A   Clear
2:15 PM 35.6 °F 25.2 °F 26.6 °F 70% 30.10 in 10.0 mi NW 18.4 mph - N/A   Clear
2:35 PM 35.6 °F 26.2 °F 26.6 °F 70% 30.10 in 10.0 mi WNW 15.0 mph - N/A   Clear
2:55 PM 35.6 °F 25.5 °F 26.6 °F 70% 30.10 in 10.0 mi NW 17.3 mph - N/A   Mostly Cloudy
3:15 PM 37.4 °F 27.2 °F 26.6 °F 65% 30.10 in 10.0 mi NW 19.6 mph - N/A   Mostly Cloudy
3:35 PM 37.4 °F 27.8 °F 26.6 °F 65% 30.10 in 10.0 mi NW 17.3 mph 23.0 mph N/A   Clear
3:55 PM 37.4 °F 27.8 °F 26.6 °F 65% 30.10 in 10.0 mi NW 17.3 mph 23.0 mph N/A   Clear
4:15 PM 37.4 °F 28.2 °F 26.6 °F 65% 30.10 in 10.0 mi NW 16.1 mph 24.2 mph N/A   Clear
4:35 PM 37.4 °F 27.5 °F 26.6 °F 65% 30.11 in 10.0 mi NNW 18.4 mph 21.9 mph N/A   Clear
4:55 PM 37.4 °F 27.8 °F 26.6 °F 65% 30.11 in 10.0 mi WNW 17.3 mph 23.0 mph N/A   Clear
5:15 PM 37.4 °F 26.9 °F 26.6 °F 65% 30.10 in 10.0 mi NW 20.7 mph 25.3 mph N/A   Clear
5:35 PM 37.4 °F 26.9 °F 26.6 °F 65% 30.10 in 10.0 mi NW 20.7 mph 24.2 mph N/A   Clear
5:55 PM 37.4 °F 27.5 °F 26.6 °F 65% 30.11 in 10.0 mi NW 18.4 mph 24.2 mph N/A   Clear
6:15 PM 37.4 °F 28.5 °F 26.6 °F 65% 30.12 in 10.0 mi WNW 15.0 mph 24.2 mph N/A   Partly Cloudy
6:35 PM 37.4 °F 28.2 °F 26.6 °F 65% 30.12 in 10.0 mi NW 16.1 mph - N/A   Mostly Cloudy
6:55 PM 37.4 °F 28.2 °F 28.4 °F 70% 30.12 in 10.0 mi NW 16.1 mph - N/A   Overcast
7:15 PM 35.6 °F 25.2 °F 28.4 °F 75% 30.13 in 10.0 mi NW 18.4 mph 23.0 mph N/A   Overcast
7:35 PM 35.6 °F 26.2 °F 28.4 °F 75% 30.13 in 10.0 mi NW 15.0 mph - N/A   Overcast
7:55 PM 35.6 °F 26.2 °F 28.4 °F 75% 30.13 in 10.0 mi NW 15.0 mph - N/A   Overcast
8:15 PM 33.8 °F 25.3 °F 28.4 °F 81% 30.14 in 10.0 mi NW 11.5 mph 18.4 mph N/A   Overcast
8:35 PM 33.8 °F 24.3 °F 28.4 °F 81% 30.14 in 10.0 mi NW 13.8 mph 18.4 mph N/A   Scattered Clouds
8:55 PM 33.8 °F 25.3 °F 28.4 °F 81% 30.15 in 10.0 mi WNW 11.5 mph - N/A   Mostly Cloudy
9:15 PM 33.8 °F 24.8 °F 28.4 °F 81% 30.15 in 10.0 mi WNW 12.7 mph - N/A   Overcast
9:35 PM 33.8 °F 25.3 °F 28.4 °F 81% 30.15 in 10.0 mi WNW 11.5 mph 19.6 mph N/A   Overcast
9:55 PM 33.8 °F 24.3 °F 28.4 °F 81% 30.15 in 10.0 mi WNW 13.8 mph 19.6 mph N/A   Mostly Cloudy
10:15 PM 33.8 °F 24.8 °F 28.4 °F 81% 30.15 in 10.0 mi WNW 12.7 mph - N/A   Overcast
10:35 PM 33.8 °F 24.8 °F 28.4 °F 81% 30.15 in 10.0 mi WNW 12.7 mph - N/A   Overcast
10:55 PM 33.8 °F 25.8 °F 28.4 °F 81% 30.15 in 10.0 mi WNW 10.4 mph - N/A   Overcast
11:15 PM 33.8 °F 25.8 °F 28.4 °F 81% 30.15 in 10.0 mi WNW 10.4 mph - N/A   Overcast
11:35 PM 33.8 °F 26.4 °F 28.4 °F 81% 30.15 in 10.0 mi NW 9.2 mph - N/A   Overcast
11:55 PM 33.8 °F 26.4 °F 28.4 °F 81% 30.15 in 10.0 mi WNW 9.2 mph - N/A   Overcast